カタログに戻る

PRAETORIAN SDA_516

運用中PO
NORAD 100074·PAYLOAD·🇺🇸 United States

打ち上げ Jul 16, 2026 から Vandenberg Space Force Base

Loading…

次のパス (今後24時間)

TLE

最新Source: Space-Track

元期: Sep 14, 2026, 07:14 UTC

1 A0074U 26163R   26257.30189512  .00000167  00000-0  13350-3 0  9999
2 A0074  81.4784 255.5624 0017965  57.5248 302.7644 13.86229684  8242

AllMySatでPRAETORIAN SDA_516をリアルタイム追跡

Download on the App Store